Location: Newark
(43.4000°N, 45.7167°E)
Time: 17:23:09
(UTC+00:00)

OTV 5 (USA 277) - Visible Passes

Search period start: 20 October 2019 00:00
Search period end: 30 October 2019 00:00
Orbit: 310 x 324 km, 54.5° (Epoch: 17 October)

Date Brightness Start Highest point End Pass type
(mag) Time Alt. Az. Time Alt. Az. Time Alt. Az.
20 Oct ? 02:03:12 36° W 02:03:53 46° SW 02:06:31 10° SSE visible
21 Oct ? 02:17:56 17° WSW 02:18:15 17° SW 02:20:09 10° S visible
27 Oct ? 15:21:24 10° S 15:22:12 15° SSE 15:22:12 15° SSE visible
28 Oct ? 15:35:11 10° SW 15:36:51 31° SSW 15:36:51 31° SSW visible
29 Oct ? 15:49:41 10° WSW 15:51:22 31° W 15:51:22 31° W visible
